GEFSMW_500_meanwind_132.txt.gz
Wind_Speed
22 22 23 23 23 23 24 23 23 25 25 26 26 27 29 29 30 30 29 29 30 31 31 31 31 30 30 30 29 29 29 30 30 29 29 29 30 30 30 29 30 29 29
21 21 21 22 23 23 24 24 24 25 26 27 27 28 28 29 30 30 30 30 31 32 32 32 32 32 31 30 31 30 31 31 31 32 31 31 33 33 32 32 32 31 31
20 20 21 22 23 23 24 25 25 25 26 27 28 28 29 29 30 30 31 32 32 32 32 32 32 33 32 32 32 31 32 33 33 34 34 33 33 33 32 32 33 33 33
19 20 20 21 22 23 24 25 25 26 26 27 28 28 29 29 30 31 31 32 32 33 33 32 32 32 33 32 32 32 31 33 34 34 34 33 32 32 32 33 34 34 34
18 19 19 20 21 22 23 24 25 26 26 27 28 28 29 30 30 30 31 32 32 33 33 33 32 32 33 32 33 33 32 33 32 32 33 33 33 32 33 33 34 35 35
17 18 19 20 20 21 22 24 25 26 27 28 28 29 29 30 30 31 31 32 32 33 33 33 33 34 34 34 34 34 33 33 33 33 33 33 34 33 33 34 34 36 36
18 19 20 21 22 22 23 24 25 26 27 28 29 29 30 30 30 31 31 32 32 32 32 32 32 32 33 34 35 34 33 33 33 33 34 34 35 36 35 35 36 36 37
19 20 21 22 23 24 25 26 26 27 28 28 29 30 30 30 30 30 30 31 31 31 31 31 31 32 33 33 34 34 34 34 35 35 35 35 36 37 37 37 37 37 38
20 21 22 23 24 25 26 26 27 28 27 27 27 28 28 29 29 29 29 30 30 30 30 30 31 32 32 32 33 33 32 33 34 35 35 36 36 37 38 39 39 39 38
21 22 23 25 26 27 27 27 27 27 27 27 27 27 27 27 28 29 29 29 29 30 30 30 30 30 31 31 32 32 32 32 33 34 35 35 35 35 37 38 38 38 38
22 24 25 26 26 27 27 27 27 26 27 27 27 27 27 28 28 28 29 29 29 29 29 29 29 29 30 30 30 31 31 31 32 32 32 34 35 35 36 36 37 37 37
24 25 26 27 27 27 27 27 27 27 27 27 27 28 28 28 28 28 29 28 28 29 29 29 28 28 28 29 29 30 30 31 31 31 31 32 33 35 35 36 36 37 37
25 26 27 27 27 27 28 27 27 28 28 28 27 28 28 28 28 28 28 28 27 27 27 28 28 27 27 28 28 29 29 29 29 29 29 30 32 33 33 34 35 36 36
25 26 27 27 27 27 27 27 27 27 26 26 27 27 28 27 27 28 28 27 26 26 25 25 26 26 26 26 26 26 26 26 27 27 27 27 28 29 31 32 32 32 32
26 27 27 27 27 27 27 26 26 26 26 26 26 27 27 27 27 26 26 25 25 24 24 24 24 24 23 24 24 24 23 24 24 25 25 25 26 27 27 28 28 29 29
27 27 27 26 26 26 26 26 26 26 25 25 25 26 26 25 24 24 23 23 22 22 21 21 21 21 21 21 21 21 21 21 22 22 23 23 23 23 23 25 25 26 27
26 26 25 25 25 25 24 24 24 24 23 23 23 23 22 22 22 21 21 21 20 20 19 19 19 19 19 20 20 20 20 20 20 20 21 21 21 21 21 21 21 22 23
25 24 24 23 23 23 22 22 22 22 22 21 21 20 20 19 19 18 18 18 17 17 16 17 17 17 18 18 18 18 18 18 18 18 19 19 19 19 18 18 18 19 19
23 22 21 21 21 21 21 20 20 19 19 18 18 18 17 16 15 14 14 14 14 14 14 14 15 15 15 16 15 15 15 15 16 16 16 16 16 15 15 15 15 16 17
20 20 19 19 19 19 18 17 16 16 16 15 14 13 12 11 11 11 11 11 11 11 11 11 11 11 12 12 12 12 12 12 13 12 12 12 12 12 12 12 13 13 13
18 18 17 17 16 16 14 14 13 13 12 12 11 10 9 8 8 8 8 9 9 8 8 9 10 9 9 9 9 9 9 9 8 8 8 8 8 8 9 9 9 10 10
16 15 14 13 13 12 11 11 10 10 9 8 7 7 6 6 6 6 6 6 6 5 6 6 6 6 6 6 6 6 6 6 5 5 5 6 6 6 6 7 7 7 8
14 13 12 10 10 10 9 9 8 8 7 6 6 6 5 4 4 3 4 4 3 3 3 3 3 3 3 3 3 3 2 2 2 2 2 2 3 4 4 4 5 6 6
12 10 9 7 7 7 7 7 7 6 7 6 5 5 4 4 3 3 2 1 0 1 0 0 0 0 0 1 1 1 2 2 2 1 1 2 2 3 3 4 5 5 4
10 9 8 7 7 7 7 7 7 7 7 6 6 6 6 5 5 5 5 5 4 4 4 4 4 4 4 4 5 4 4 4 4 4 4 4 4 4 4 4 4 3 3
9 8 8 8 7 7 7 7 8 8 8 8 8 8 8 8 8 9 9 9 8 8 8 7 7 7 7 7 7 7 7 7 6 6 6 6 5 5 5 4 4 4 4

GEFSMW_500_meanwind_138.txt.gz
Wind_Speed
21 21 21 22 22 23 23 24 25 25 26 27 28 29 29 29 29 30 30 30 31 31 31 31 31 31 30 30 30 30 30 30 29 30 29 30 30 29 28 29 29 30 30
20 22 22 21 22 23 24 25 25 26 27 28 28 29 30 30 30 30 30 31 31 31 32 33 33 32 32 32 32 32 32 32 31 31 31 31 31 31 30 30 30 29 30
20 21 21 21 22 23 24 25 25 26 27 28 28 29 29 30 30 31 31 31 32 32 32 33 34 34 35 34 34 34 34 34 33 33 32 31 31 31 31 32 32 32 33
20 22 22 23 23 24 24 25 26 27 27 27 28 29 29 30 31 32 32 32 32 32 32 33 33 34 35 35 36 36 35 35 34 34 34 33 32 33 32 32 33 34 33
21 22 23 23 23 23 24 25 26 27 27 28 29 30 30 31 32 33 33 33 33 32 33 33 34 34 34 34 35 35 35 35 35 35 35 34 33 34 34 33 34 34 34
21 22 22 23 23 24 25 25 26 27 28 29 29 30 31 31 32 33 32 33 33 32 33 33 33 33 33 33 33 34 34 33 33 34 34 34 34 34 35 35 34 34 34
20 21 21 22 23 24 25 26 27 28 29 30 30 31 31 31 32 32 32 32 32 32 32 32 33 33 33 33 33 33 33 33 33 32 33 34 35 35 35 35 35 35 35
20 21 22 22 23 24 26 27 28 29 30 30 31 31 32 31 32 31 31 31 31 31 31 31 32 32 32 32 32 33 33 33 33 33 33 33 33 34 35 34 34 34 34
20 21 22 23 24 25 26 27 28 30 30 30 30 31 31 31 30 30 30 30 30 30 30 30 30 30 30 31 31 31 31 31 31 32 32 33 33 33 33 34 35 35 34
21 22 24 25 25 26 27 28 29 29 30 31 31 30 30 30 30 30 30 30 30 29 30 30 30 30 30 30 30 30 30 30 30 30 31 32 32 31 32 33 33 34 35
24 25 26 27 27 28 28 29 30 30 30 30 29 29 29 29 29 29 29 29 29 29 29 29 29 30 29 28 28 27 28 28 28 29 29 29 30 31 32 32 32 32 33
26 27 28 28 28 29 29 29 29 29 29 29 29 28 28 28 28 29 29 29 29 28 28 28 28 28 27 26 26 27 27 27 27 28 28 28 29 30 30 31 31 31 32
27 28 28 29 29 30 30 29 30 29 29 29 28 27 27 27 27 27 28 28 28 28 28 28 27 27 26 26 26 26 26 26 26 27 27 27 27 28 28 29 29 29 29
28 29 29 29 30 30 30 30 30 29 28 28 27 27 26 26 27 27 26 27 27 27 27 27 26 26 25 25 25 25 24 24 25 25 25 25 25 25 25 26 26 26 27
29 30 30 29 29 29 29 29 28 27 27 26 27 26 26 26 26 26 26 26 26 25 25 24 24 24 23 23 23 23 23 23 23 23 23 23 23 23 23 24 24 24 24
29 29 29 29 28 28 28 28 27 26 26 26 26 25 25 25 25 25 24 24 23 22 22 22 22 21 21 20 20 21 21 21 20 20 20 21 21 21 21 21 21 21 21
27 27 27 27 26 27 26 26 25 25 25 25 25 24 24 24 23 21 21 21 20 20 19 19 19 18 18 17 17 17 18 19 18 18 19 19 19 19 18 18 18 18 17
25 25 25 25 26 25 25 25 24 23 23 22 22 22 21 20 20 19 19 19 18 17 17 16 16 15 15 14 14 13 14 15 15 16 16 15 15 16 15 15 15 15 15
24 23 24 23 23 23 23 22 21 21 21 20 19 19 18 17 17 16 15 15 15 14 13 13 13 12 12 12 12 11 12 12 12 13 13 12 12 12 13 13 13 13 13
22 22 22 21 20 19 19 18 18 17 17 16 16 15 14 14 14 13 12 12 13 12 11 11 11 10 10 9 10 10 10 10 10 9 9 10 10 10 10 10 10 10 10
21 20 19 18 17 17 17 16 16 15 15 14 14 13 13 13 12 11 11 10 9 9 9 9 9 9 8 8 7 6 6 7 7 7 7 7 7 7 6 7 7 7 7
19 17 16 15 14 14 14 13 13 13 12 12 11 11 11 11 10 9 8 7 7 7 7 7 7 6 6 6 5 4 4 4 4 4 4 4 5 5 4 4 3 4 5
17 15 13 13 12 11 11 11 11 10 10 10 9 9 8 8 7 7 6 5 5 5 5 5 5 5 4 3 3 4 3 2 3 2 2 2 3 3 3 3 3 3 3
14 12 12 11 11 10 10 10 9 9 9 8 7 7 6 6 6 5 5 5 4 4 5 5 5 5 4 4 3 4 4 4 3 4 4 5 5 5 5 4 3 4 4
12 11 11 11 10 10 9 9 9 9 8 8 7 7 6 6 6 5 5 5 5 5 5 6 6 6 6 5 6 6 6 7 7 7 7 7 7 7 6 5 5 5 5
11 10 10 9 9 9 9 8 9 9 9 9 8 8 7 7 7 7 7 7 6 7 7 7 7 8 8 8 8 9 9 9 9 9 8 8 7 7 7 6 6 6 6

GEFSMW_500_meanwind_144.txt.gz
Wind_Speed
17 17 18 20 20 20 19 19 19 21 22 23 24 24 24 24 25 25 26 26 26 27 27 27 27 27 27 27 28 28 28 29 29 29 28 27 27 27 28 28 28 28 28
16 16 17 18 20 22 22 20 20 21 22 23 24 25 25 26 26 27 27 27 27 28 28 29 29 29 29 30 29 28 29 29 29 30 29 28 28 29 29 29 29 28 27
16 16 17 18 20 20 20 20 21 22 22 23 24 25 26 26 27 28 28 28 28 29 29 29 30 31 31 31 31 30 29 30 30 31 31 31 30 30 30 30 30 30 29
16 16 16 18 20 20 20 21 22 22 23 23 24 25 26 27 28 29 29 29 29 29 29 29 30 31 31 31 30 30 31 31 31 31 32 32 31 31 31 31 30 30 30
16 16 17 18 19 19 20 21 22 23 24 25 26 26 27 27 28 28 29 30 29 29 29 29 30 30 30 30 30 30 30 31 31 31 32 32 32 32 32 32 32 32 31
15 16 17 18 20 21 21 22 22 24 25 26 26 27 28 28 28 29 29 29 29 29 29 29 28 29 29 28 28 29 29 29 30 30 30 31 31 31 32 31 31 32 32
15 17 18 19 20 21 22 22 23 24 25 26 27 27 28 28 28 28 29 29 29 29 28 28 28 28 28 27 27 27 28 27 28 28 28 29 30 30 30 30 30 30 30
15 16 18 19 20 21 22 23 24 24 25 26 27 27 27 27 28 28 28 28 28 28 28 28 28 29 28 27 27 27 26 26 27 27 27 28 28 29 29 29 29 29 29
16 16 17 19 20 22 23 23 24 25 26 26 27 28 28 28 28 28 28 28 28 28 27 27 26 26 26 26 26 26 26 26 26 26 26 27 27 28 28 29 29 29 29
16 17 18 19 21 23 24 25 25 26 27 28 28 28 28 28 28 28 28 27 27 27 27 26 25 25 25 25 25 26 25 25 25 26 26 27 27 28 28 28 29 29 28
18 20 20 21 22 23 24 26 26 27 28 29 29 28 28 28 27 27 27 27 27 27 26 26 25 25 25 25 25 24 24 24 24 24 25 26 26 27 27 28 28 28 28
21 20 21 22 22 23 25 26 27 28 28 28 28 28 28 28 28 27 27 27 27 27 26 26 26 25 25 25 24 24 24 24 23 23 24 25 25 26 26 26 26 26 26
22 22 22 22 22 24 25 26 26 27 27 27 27 27 27 27 27 27 27 27 27 27 26 25 25 24 24 24 25 24 24 23 23 23 23 23 24 24 25 25 25 24 24
23 23 24 24 24 25 26 26 26 26 26 25 25 26 25 25 25 25 25 25 25 24 24 24 23 24 24 23 23 23 22 22 22 22 22 22 22 22 22 22 22 22 22
22 23 24 25 24 24 24 25 25 25 24 24 23 23 23 23 23 23 23 22 21 21 21 21 21 22 21 21 21 21 21 21 20 20 20 20 19 19 18 19 19 20 20
23 24 24 23 23 23 23 24 24 23 22 22 21 20 20 20 20 20 20 19 19 19 19 20 20 19 19 20 20 20 20 19 18 18 18 18 18 17 17 18 17 17 17
24 24 23 23 23 22 22 22 21 21 20 19 18 18 18 18 18 18 18 18 19 19 19 18 18 18 17 17 17 16 16 16 16 16 16 16 15 16 15 15 15 15 15
23 22 22 21 20 19 19 19 18 18 17 16 16 17 17 16 17 16 17 17 17 16 15 15 15 14 14 13 12 12 13 13 13 13 12 12 12 12 11 12 13 12 12
20 19 19 18 17 15 15 15 15 15 15 15 14 15 15 15 15 15 16 15 14 13 13 12 11 11 10 10 10 11 11 10 10 10 9 9 9 8 9 10 10 10 9
17 16 16 15 13 13 13 13 13 13 12 12 13 13 13 14 14 14 13 13 13 12 11 10 9 8 8 8 8 8 7 6 6 6 6 6 6 6 6 7 6 6 6
15 15 14 13 12 11 11 12 12 12 11 11 11 12 12 12 13 12 11 11 10 9 8 7 7 6 6 6 5 4 3 2 2 2 2 2 2 2 2 2 3 3 3
14 14 13 12 11 10 9 10 10 10 10 10 10 10 10 10 10 9 9 8 7 6 6 5 5 5 5 5 5 5 4 4 3 2 2 2 2 3 2 2 1 1 0
13 12 12 10 9 9 9 10 9 9 9 9 9 9 8 8 8 7 6 6 6 6 6 6 6 6 7 7 7 7 7 8 7 7 6 6 6 6 5 5 4 4 4
11 10 10 9 9 9 9 9 8 7 8 8 8 8 7 7 7 7 7 7 7 7 7 7 8 8 8 8 9 9 9 9 9 10 10 9 8 8 7 7 7 7 6
9 9 8 8 9 9 9 9 9 9 8 8 8 8 8 8 8 8 9 8 9 9 8 9 9 10 10 11 11 11 11 11 11 11 11 10 10 10 9 8 8 8 7
9 9 8 9 9 9 9 10 9 9 10 9 9 9 10 10 11 11 11 11 11 10 10 10 10 11 11 11 11 11 11 11 11 11 12 12 11 10 10 9 9 8 8

GEFSMW_500_meanwind_150.txt.gz
Wind_Speed
14 15 16 17 16 16 18 18 18 17 18 19 20 21 21 21 22 22 22 23 24 24 25 26 26 26 27 28 28 29 29 29 30 30 30 30 31 31 31 30 29 29 29
15 15 15 16 16 16 17 16 16 17 19 20 21 22 22 22 22 23 23 24 24 25 26 27 27 28 28 29 29 30 30 30 31 31 31 31 32 32 32 31 31 30 29
15 15 14 15 16 16 17 18 19 20 21 22 22 23 24 23 23 24 24 25 25 26 26 27 28 28 29 29 30 30 30 30 31 31 31 31 32 33 33 32 31 30 30
14 14 15 16 17 18 19 20 21 22 22 22 23 24 24 24 24 25 26 27 27 27 27 28 28 28 29 29 29 30 30 30 30 31 32 32 32 31 32 32 31 31 31
15 16 17 17 18 19 20 21 22 23 23 24 24 24 24 25 25 26 26 27 27 28 28 28 28 29 29 29 29 30 30 30 30 30 30 30 30 30 30 30 31 31 31
16 17 18 19 20 21 21 22 23 24 24 24 24 24 24 25 26 26 26 27 27 28 28 29 29 29 30 30 29 29 29 29 28 28 28 28 29 28 28 29 29 30 30
18 19 20 20 21 22 23 24 25 25 24 24 24 24 25 25 26 27 27 27 28 28 29 29 29 29 29 29 28 28 28 28 28 27 27 27 27 27 27 27 28 29 29
19 21 21 21 22 23 24 24 25 24 25 25 25 25 26 27 27 28 28 28 29 29 29 29 29 29 29 28 28 28 28 28 28 27 27 27 26 27 27 27 27 28 29
20 22 22 23 23 24 25 26 26 26 26 26 26 26 27 27 28 29 29 28 28 28 28 28 28 27 27 27 27 28 28 28 28 28 27 27 27 28 28 27 27 28 28
20 21 22 24 24 25 25 26 26 26 27 28 28 28 28 28 28 28 29 28 28 28 28 27 27 26 26 26 26 26 27 27 27 27 27 27 27 28 28 28 28 28 27
21 21 22 23 24 25 26 26 26 27 28 28 28 28 28 28 28 29 29 28 28 28 28 27 27 27 27 27 26 26 26 26 26 26 27 28 28 27 27 27 28 28 27
21 21 22 23 24 25 26 26 27 28 28 28 27 27 28 28 28 28 28 28 28 27 27 27 27 27 26 26 26 26 26 26 26 26 26 26 27 27 27 27 27 27 27
21 22 22 23 24 25 26 26 26 27 27 27 27 27 27 27 27 27 26 26 26 25 24 25 25 25 25 26 26 26 26 26 26 26 25 25 26 26 26 26 26 26 26
22 22 23 24 24 24 24 24 25 25 25 25 25 25 25 25 25 25 24 24 24 24 23 23 23 23 23 24 24 24 24 24 24 24 23 23 23 23 23 23 23 24 24
22 22 23 22 21 21 23 23 24 23 22 22 22 22 22 23 23 22 22 22 21 21 21 21 21 21 21 21 21 22 21 21 21 21 20 20 20 20 20 20 20 21 21
22 21 21 21 20 20 20 20 20 20 20 19 20 20 20 20 20 20 19 19 19 19 19 19 19 19 19 19 19 19 19 18 18 18 17 17 17 17 17 17 17 18 19
21 21 21 19 18 18 17 17 17 17 17 17 18 17 17 18 18 17 17 17 17 17 17 17 17 17 17 17 16 16 15 15 15 15 15 15 14 14 14 14 14 15 16
20 19 18 17 16 16 15 15 15 15 15 15 15 15 16 16 16 15 15 15 15 15 15 15 15 15 14 13 12 12 12 12 12 12 12 11 11 11 11 11 12 12 12
18 17 16 14 14 14 14 14 14 13 13 14 14 14 14 14 14 14 13 14 14 13 13 13 13 12 12 11 10 9 9 9 8 8 8 8 8 8 8 8 9 9 9
16 15 14 13 13 12 11 11 12 11 11 11 11 12 12 12 12 13 13 13 12 12 11 11 11 10 9 8 8 8 7 6 5 5 5 5 5 5 5 6 5 5 6
15 13 12 11 10 10 10 10 9 9 9 9 10 10 10 10 11 11 11 11 10 9 9 8 8 8 8 8 8 8 6 5 5 5 4 3 3 2 2 1 1 2 3
13 11 10 9 9 9 9 8 8 8 8 8 8 8 9 10 10 10 9 8 7 7 7 7 7 7 7 8 8 8 7 7 6 7 7 6 5 5 5 4 3 2 1
10 8 8 8 7 7 7 7 7 7 7 7 7 8 8 9 9 8 8 8 7 7 6 7 7 7 7 8 9 9 9 8 8 8 9 8 8 8 7 6 5 4 5
9 7 7 6 6 6 6 6 6 7 7 7 6 6 7 8 8 8 7 8 8 8 8 8 8 8 9 10 10 10 10 10 10 10 9 9 9 9 9 9 9 9 8
7 6 5 5 5 6 6 5 7 7 7 7 7 7 7 8 9 9 9 9 9 9 9 9 9 10 10 10 10 10 11 11 11 11 11 11 11 11 10 11 11 10 10
6 6 5 6 6 6 6 6 7 7 8 8 8 8 8 9 10 10 10 10 10 10 10 11 11 11 11 11 11 11 12 12 12 12 12 11 11 11 11 11 11 10 10

GEFSMW_500_meanwind_156.txt.gz
Wind_Speed
17 17 17 17 16 16 17 17 18 19 19 19 19 21 22 22 23 23 23 24 24 25 25 25 25 25 26 26 27 28 28 29 28 29 28 28 28 29 30 31 31 31 31
17 18 18 17 16 17 16 16 17 18 19 19 21 22 21 22 23 23 24 25 25 25 25 25 26 26 27 27 28 28 29 30 30 30 29 29 30 30 31 32 32 32 32
17 17 17 16 16 16 16 16 16 17 19 20 20 21 22 23 23 24 25 25 26 26 27 27 27 27 28 28 28 28 29 30 30 30 29 29 29 29 30 31 32 33 33
17 17 15 15 16 16 16 17 18 19 20 20 21 22 23 24 24 25 26 26 27 27 27 28 28 28 28 28 28 29 29 29 29 29 29 29 29 29 28 29 30 32 33
17 16 15 16 17 18 18 19 20 21 22 22 22 23 24 25 26 26 27 27 27 27 27 28 28 28 29 29 29 29 29 30 30 30 30 29 29 29 28 28 29 30 31
16 16 16 17 19 20 20 21 22 22 23 24 24 25 25 27 27 27 27 27 27 28 28 29 29 30 29 29 29 29 30 29 30 30 30 29 29 28 28 28 29 29 30
17 18 18 19 20 21 22 23 23 24 24 25 26 26 27 27 26 26 27 27 28 28 29 29 30 30 30 30 30 30 30 29 29 29 29 29 29 29 28 29 29 30 30
16 17 18 20 21 22 23 24 24 25 26 27 27 27 27 27 27 27 27 28 29 29 30 29 30 30 31 31 30 30 30 30 30 30 30 30 30 30 29 30 30 30 30
16 18 19 21 22 23 24 24 25 26 27 28 28 28 28 28 28 28 29 30 30 31 30 30 31 31 31 31 30 30 30 30 30 30 31 31 30 30 30 30 29 29 29
17 18 20 22 23 24 25 25 26 27 27 28 28 29 29 29 29 29 30 30 30 30 31 31 31 31 31 31 31 31 30 30 30 30 30 30 30 30 30 29 29 30 30
18 19 20 22 23 23 24 25 25 26 26 27 27 27 27 27 28 28 28 29 29 29 29 29 29 29 29 30 30 30 30 30 30 29 29 29 29 29 28 28 28 29 29
19 20 21 22 22 23 23 23 23 24 25 25 25 25 25 25 26 26 27 28 27 27 27 27 27 28 28 28 29 29 29 29 28 28 28 29 29 28 28 27 28 28 28
20 20 20 21 22 22 22 22 22 23 24 25 25 24 24 24 24 25 25 25 25 24 25 25 25 26 26 26 26 26 26 27 27 27 27 27 27 27 26 26 26 26 26
19 20 20 21 21 22 22 22 23 23 23 23 23 23 22 22 22 23 23 23 22 22 22 22 22 22 23 23 23 23 23 23 24 24 24 24 23 23 23 23 24 23 23
19 20 21 21 21 21 21 22 22 22 21 21 21 21 21 20 20 20 19 19 18 18 18 18 19 19 19 19 19 19 20 20 20 20 20 20 20 20 20 20 20 20 20
19 20 20 20 20 20 20 20 20 20 20 20 19 18 18 18 17 17 16 16 16 16 16 15 16 16 16 17 17 17 17 16 16 16 16 16 16 15 16 16 17 17 17
19 19 19 20 20 20 20 19 18 18 17 16 15 15 15 15 15 15 14 14 14 14 14 14 14 14 15 14 14 14 14 13 12 12 11 11 11 12 12 13 13 13 14
18 18 18 18 18 17 16 16 16 16 15 14 14 14 14 14 14 13 12 12 12 12 13 12 12 13 12 11 11 11 10 9 9 8 8 8 8 8 8 9 9 9 10
17 17 17 16 15 15 15 15 14 13 13 13 13 13 13 13 12 12 10 9 10 11 10 11 11 10 9 8 8 8 7 7 6 6 6 6 6 5 5 5 5 6 7
15 14 14 14 13 12 13 12 11 12 12 11 11 11 11 11 11 10 8 8 8 9 9 10 9 9 8 7 6 6 6 6 5 4 4 4 3 3 2 2 2 3 3
13 13 12 11 10 10 10 10 9 10 10 9 9 9 10 10 9 7 6 6 7 7 8 8 8 8 6 5 6 5 5 6 6 6 5 4 4 3 2 2 1 1 0
11 10 9 8 8 8 8 8 8 8 7 7 7 7 8 7 6 6 6 6 7 7 6 7 7 7 6 6 6 6 7 7 8 8 8 7 7 7 6 5 5 4 4
8 8 7 6 6 7 7 6 6 5 6 5 6 6 6 6 5 5 6 6 6 6 6 6 7 8 8 8 8 8 9 9 10 10 10 10 9 9 8 7 6 6 6
6 5 5 4 5 6 6 5 5 5 4 4 5 5 6 7 7 6 6 6 6 6 6 6 7 8 9 9 9 9 9 10 11 12 12 11 11 10 9 9 8 7 7
4 4 4 4 5 6 6 5 5 4 3 4 5 6 6 7 7 7 7 7 7 7 7 7 7 8 9 9 10 10 10 10 11 11 12 12 12 11 10 10 10 9 9
3 3 3 4 5 5 4 4 3 3 3 4 5 5 6 7 8 8 9 9 8 8 8 8 9 9 10 10 10 11 11 11 11 11 11 11 11 11 11 10 10 9 9

GEFSMW_500_meanwind_162.txt.gz
Wind_Speed
18 19 20 20 20 21 22 21 22 22 22 22 22 23 23 23 23 23 24 24 25 26 26 26 26 25 25 25 26 26 26 27 27 27 27 27 28 28 28 28 27 27 28
18 19 20 20 21 22 22 21 21 21 21 22 22 23 23 23 23 24 25 25 26 26 26 27 27 27 27 26 26 26 27 27 27 27 27 27 28 28 28 28 28 28 28
19 19 20 21 21 21 21 21 22 22 22 22 23 24 24 25 25 25 26 26 26 27 27 27 27 27 27 27 27 28 28 28 28 28 29 28 28 28 28 28 28 28 28
20 19 19 20 19 19 19 21 22 23 23 24 24 25 25 24 25 26 26 27 27 27 27 27 27 27 27 27 28 28 29 29 29 29 30 30 29 29 28 29 29 29 29
20 19 20 20 19 20 20 21 23 23 23 24 24 24 25 25 26 27 27 28 28 28 28 28 28 28 28 27 27 28 29 29 30 30 30 30 30 29 29 28 29 29 29
20 20 20 20 19 20 21 22 23 23 23 24 25 25 26 27 28 28 28 28 28 28 29 29 29 29 29 28 28 28 29 29 29 30 30 30 30 30 29 29 29 29 30
19 20 20 20 19 20 21 22 22 24 24 25 26 26 27 27 28 28 28 29 29 29 29 29 29 29 29 29 29 30 30 29 29 29 30 30 30 30 30 30 30 30 30
20 20 21 20 19 19 21 22 23 23 24 25 25 26 26 26 27 28 28 28 28 28 29 29 29 29 29 29 30 30 30 30 30 29 29 29 30 30 30 30 30 30 30
20 21 21 21 21 20 21 22 23 24 24 25 25 26 26 27 27 27 28 28 28 28 27 27 28 28 28 29 29 30 31 31 30 29 29 29 29 30 30 30 30 30 30
21 21 21 21 21 22 22 23 23 24 24 24 25 26 26 26 27 27 28 28 27 27 27 27 27 27 27 28 30 30 30 30 29 29 29 29 29 29 30 30 29 29 29
21 21 21 22 22 22 23 25 25 25 24 25 25 25 26 26 27 27 27 26 26 27 26 26 26 26 27 27 28 29 29 28 29 29 28 28 29 29 28 28 28 28 28
22 22 22 22 21 22 23 24 24 25 25 25 25 25 25 25 25 25 25 25 24 24 24 23 24 24 24 25 26 26 26 26 26 27 27 27 27 27 27 27 26 27 27
23 22 22 22 22 23 24 24 23 24 25 24 24 25 24 24 24 23 23 23 21 21 21 21 20 21 22 23 23 23 23 23 23 24 24 24 24 25 25 25 25 25 24
22 21 21 22 22 23 23 23 24 24 23 23 23 23 22 22 21 21 21 20 19 19 18 18 18 19 19 20 20 21 20 21 20 21 21 22 22 22 22 23 23 23 22
20 21 21 21 22 22 22 22 23 22 21 21 20 20 20 20 19 18 17 17 17 17 16 16 16 17 17 17 18 18 18 18 18 18 18 18 18 19 19 19 19 19 19
20 21 22 21 21 21 21 21 20 20 19 19 18 18 18 17 17 16 16 16 16 15 15 15 15 15 16 16 16 16 16 16 15 15 15 15 15 15 15 14 14 15 15
20 20 21 20 19 19 19 19 19 18 18 18 17 17 16 15 15 14 14 14 15 14 14 14 14 15 15 15 15 14 14 13 13 13 13 13 12 11 10 10 10 11 12
18 19 19 18 17 17 17 18 18 17 17 16 15 15 14 14 14 13 13 13 14 12 11 12 13 13 13 13 13 13 13 13 12 11 11 10 9 8 7 7 8 8 8
17 17 17 16 17 17 16 16 16 16 16 14 13 13 12 12 12 11 11 11 11 11 10 11 12 12 12 12 12 12 12 11 10 10 9 8 7 7 6 5 5 5 5
16 16 16 15 15 15 15 14 14 14 13 12 12 11 11 11 10 10 10 9 9 10 9 10 9 10 12 12 11 10 10 10 9 9 7 7 6 5 5 4 3 2 2
15 14 14 14 14 13 13 12 11 11 11 11 10 10 9 9 9 8 8 8 8 8 8 9 9 10 11 11 10 9 9 9 9 9 8 7 7 6 5 4 3 2 2
13 12 12 11 11 11 10 8 9 9 9 9 8 7 7 8 8 7 7 8 8 8 7 9 9 10 11 11 11 10 9 9 9 9 8 8 8 8 6 5 4 4 4
10 9 9 9 9 9 7 6 7 8 7 6 6 6 6 7 8 7 7 7 8 8 8 9 9 10 10 10 10 10 10 10 10 9 9 9 9 8 8 8 7 6 5
8 8 7 7 7 7 7 7 7 6 6 5 5 5 6 7 7 7 7 7 8 7 8 8 9 10 9 9 9 9 10 10 10 10 10 10 10 9 9 9 8 7 7
7 6 6 6 6 6 7 6 5 5 5 5 5 5 5 6 7 7 7 7 7 8 8 8 9 9 9 9 9 10 10 10 10 11 11 11 10 10 9 9 9 8 7
6 5 5 6 6 6 6 5 5 4 4 4 4 4 5 6 6 7 8 8 8 8 8 8 9 9 9 10 10 10 11 11 10 11 11 11 10 10 10 9 9 8 8

GEFSMW_500_meanwind_168.txt.gz
Wind_Speed
16 15 15 15 16 17 18 19 20 20 20 20 21 22 21 22 22 22 23 23 24 24 24 24 25 25 26 26 25 25 25 24 24 24 24 25 25 26 26 26 27 27 27
16 15 15 14 15 17 19 20 20 20 20 21 21 22 22 23 23 24 24 24 24 24 25 25 26 27 27 27 26 26 25 25 25 25 25 25 26 26 27 27 27 27 27
16 14 14 15 15 17 18 18 19 19 20 20 21 22 23 23 23 24 24 24 24 24 24 25 26 27 28 27 27 26 26 26 27 27 27 27 26 27 27 27 27 27 27
15 15 14 15 16 17 18 18 18 19 20 21 21 21 22 23 24 24 24 24 24 25 25 26 26 27 27 27 27 27 26 26 27 27 28 28 28 28 27 28 28 28 28
16 16 16 16 16 17 18 19 19 20 20 21 21 21 22 22 23 23 23 24 25 26 26 26 26 27 26 27 27 26 26 26 26 27 27 27 28 28 27 27 28 29 28
16 16 16 16 17 18 19 20 21 21 21 21 22 22 22 23 24 24 24 25 26 26 26 27 27 27 27 27 27 26 26 26 26 26 27 27 28 27 27 27 27 28 28
16 16 17 17 18 20 21 21 22 22 22 22 23 23 24 24 25 25 25 26 26 26 26 26 26 27 27 26 26 25 25 26 27 27 27 27 27 28 28 28 28 28 28
16 17 17 18 19 20 21 21 21 21 22 22 22 22 23 23 24 25 26 26 26 26 26 25 25 26 25 26 25 25 26 27 28 28 28 29 29 28 28 28 28 28 28
16 17 17 18 18 19 20 20 20 19 19 20 21 22 23 23 24 24 25 25 24 24 24 24 24 24 24 24 25 26 27 27 28 28 28 29 29 28 28 27 27 27 28
16 17 17 18 18 19 20 20 19 20 21 21 21 22 23 23 24 24 25 24 24 23 23 23 23 23 24 24 24 25 25 26 26 27 27 27 27 27 27 27 26 27 26
16 18 19 18 18 19 19 20 21 21 22 22 22 22 23 23 23 23 22 22 22 22 22 22 21 22 22 23 23 23 24 24 25 25 25 25 25 25 25 26 26 26 25
18 18 19 19 19 20 20 21 21 21 22 22 21 21 22 22 22 21 20 20 21 21 20 20 21 21 21 22 22 22 23 23 23 23 23 22 23 23 23 23 23 24 24
19 20 20 20 20 19 20 20 21 21 22 21 21 21 20 20 20 19 19 19 19 19 19 20 20 20 20 20 20 21 20 20 21 21 20 20 20 20 20 20 20 21 21
18 19 19 19 20 20 20 21 20 20 21 20 19 19 19 18 18 17 17 17 17 17 17 18 18 18 18 18 18 18 17 18 17 17 17 17 17 17 17 18 18 18 19
17 17 17 18 19 19 19 19 18 19 19 18 17 17 17 17 17 16 15 15 15 16 16 16 16 16 15 15 15 15 15 15 14 14 15 15 15 15 15 16 17 17 17
17 17 16 16 17 17 18 18 18 18 16 15 16 16 16 15 15 15 15 14 14 14 14 13 13 13 13 13 13 14 13 13 13 14 13 13 12 12 12 13 13 13 13
17 17 16 16 15 15 15 16 17 15 14 13 14 15 15 14 14 14 13 13 12 12 12 12 11 11 11 12 12 12 12 11 11 11 11 10 10 10 10 9 9 8 8
17 16 14 13 13 13 14 14 14 12 12 11 12 13 13 12 11 11 11 10 10 10 10 10 11 11 11 11 12 11 11 10 10 9 8 8 7 7 7 6 6 5 5
15 13 12 12 12 12 12 12 11 11 10 10 11 11 10 10 9 10 10 10 9 8 8 9 10 10 11 10 10 10 10 9 9 8 7 7 7 7 6 4 3 3 2
12 11 10 10 10 10 10 10 10 10 10 9 10 10 9 9 9 9 9 9 8 8 8 8 8 9 9 10 10 9 9 9 9 8 8 7 6 6 5 4 4 3 2
12 11 10 9 9 8 9 9 9 9 9 9 8 8 9 8 8 8 8 8 8 7 7 7 8 8 9 9 9 9 9 9 9 9 9 9 7 6 6 5 5 4 3
10 9 8 8 8 7 7 6 6 7 7 7 7 7 7 7 7 7 7 7 7 7 7 8 8 8 9 9 9 9 9 10 9 9 9 9 9 7 7 6 5 4 4
7 6 6 6 6 6 5 5 5 5 5 5 6 6 5 6 6 6 5 7 7 7 7 7 8 8 8 8 8 8 9 9 9 9 9 9 9 9 8 7 6 5 4
5 5 5 5 5 4 3 4 4 4 4 4 5 5 5 5 5 5 6 6 7 7 7 7 8 7 8 8 8 9 9 9 10 10 10 10 9 9 8 7 6 6 5
4 4 4 4 3 3 3 3 3 3 3 4 4 5 5 5 5 5 6 6 7 7 8 8 7 7 7 8 9 9 9 10 10 10 10 10 9 8 8 8 8 7 6
3 4 4 3 3 3 2 2 3 3 3 3 4 4 5 5 5 5 6 6 7 7 7 7 7 6 6 7 8 9 9 9 10 10 10 9 9 9 8 8 7 7 6

GEFSMW_500_meanwind_174.txt.gz
Wind_Speed
18 17 17 17 17 17 17 18 19 19 19 20 20 20 21 22 23 23 23 24 24 24 24 25 25 26 26 27 27 28 28 28 28 28 27 27 28 29 28 28 28 28 28
18 17 17 17 17 17 17 18 18 19 19 20 21 21 22 22 23 24 24 25 24 25 26 26 26 27 27 27 27 28 29 29 28 28 28 28 28 28 29 29 29 29 29
17 16 16 16 17 17 18 18 18 19 19 19 20 21 22 23 24 25 25 25 25 26 26 27 27 28 28 28 28 28 28 28 28 28 28 28 28 28 28 28 28 28 29
18 17 16 16 17 17 18 18 18 19 19 19 21 22 22 23 24 24 24 24 24 25 26 26 27 27 27 27 27 27 27 27 28 29 28 28 28 27 27 28 28 29 29
19 18 17 16 16 17 17 18 19 20 20 21 21 22 23 23 23 24 24 23 23 24 25 24 25 25 26 26 27 27 27 28 28 28 28 28 29 28 27 28 28 29 30
19 17 18 17 16 17 18 19 20 21 22 22 22 22 22 22 22 22 23 23 23 23 24 24 25 25 26 27 27 27 28 28 29 28 29 29 29 28 28 29 29 29 29
17 17 17 18 18 18 19 20 21 22 22 22 22 22 23 23 23 23 24 25 25 25 25 25 25 25 26 27 28 29 29 29 28 28 28 27 27 28 28 29 29 29 29
18 18 19 19 20 19 19 20 20 21 21 21 22 23 23 23 24 25 26 26 25 25 25 26 26 26 26 27 28 28 28 29 28 27 27 27 27 27 28 28 28 28 28
19 19 19 20 20 19 19 19 20 20 20 20 21 23 23 24 24 25 25 24 24 24 25 26 27 27 27 26 25 26 26 26 26 26 26 26 26 27 27 27 27 27 27
19 19 19 19 19 20 19 20 20 20 20 20 21 23 23 24 24 24 24 24 24 24 24 25 25 26 26 25 25 24 24 24 24 24 24 24 23 24 25 26 26 26 26
19 19 18 19 19 20 20 20 20 20 21 21 21 21 21 22 23 23 23 23 22 23 23 23 24 24 24 23 23 22 22 22 22 22 22 22 22 22 24 24 24 25 25
18 18 18 18 19 20 21 20 20 20 20 20 21 20 20 20 21 22 21 21 22 22 23 23 23 22 22 22 22 21 21 20 20 20 20 20 20 21 22 22 23 23 22
18 18 19 19 19 19 19 19 19 19 19 19 20 19 19 20 21 21 20 21 21 21 22 22 21 21 20 20 19 18 18 18 18 18 18 18 19 19 19 19 19 20 20
18 18 18 18 18 18 18 18 18 18 18 18 18 19 19 19 19 19 19 18 19 19 19 19 19 18 18 18 17 17 16 16 16 16 17 17 17 17 17 17 17 17 18
16 16 16 16 16 16 17 17 17 16 16 17 17 18 18 18 17 17 17 17 17 16 16 16 16 16 17 16 16 16 15 14 14 14 14 14 15 14 15 15 15 16 15
15 15 15 16 16 15 16 15 15 15 15 15 16 16 16 16 16 16 16 16 15 14 14 15 15 15 14 14 14 14 13 12 12 12 12 12 13 13 13 13 13 13 13
15 15 15 16 16 16 15 14 14 14 14 14 14 14 14 15 15 15 15 14 14 14 14 14 14 13 13 13 12 12 11 11 11 11 11 12 12 11 10 10 10 10 10
14 14 15 15 14 14 13 13 12 12 11 11 12 12 12 13 13 13 13 13 13 13 13 13 13 13 12 12 11 11 10 10 10 10 11 11 11 10 9 9 9 9 8
12 12 13 12 11 11 11 11 10 10 10 10 10 11 11 11 11 11 11 11 11 12 12 12 12 11 11 11 11 10 10 10 11 11 11 11 10 9 8 8 8 8 8
10 10 10 10 10 10 9 8 8 8 8 9 9 8 9 9 10 10 11 11 12 12 12 11 11 11 11 11 11 11 10 11 11 11 10 10 9 8 8 8 8 7 6
9 9 8 8 9 9 8 7 7 7 8 7 7 7 7 8 9 10 10 10 11 11 11 11 10 10 10 11 10 10 11 11 11 11 10 9 8 8 8 9 8 7 6
8 7 7 7 7 7 6 6 6 6 6 6 6 6 7 8 9 9 9 10 10 10 10 10 10 9 9 10 10 10 10 10 11 10 9 9 8 8 8 9 9 7 6
7 6 6 6 6 6 6 4 3 4 5 6 6 6 7 7 8 9 9 9 9 9 9 9 9 9 9 9 9 9 9 9 9 9 9 9 9 9 9 9 8 8 7
5 5 5 5 5 5 4 3 3 3 5 4 5 5 6 7 8 8 8 8 8 9 9 9 10 9 10 9 9 9 9 8 9 9 9 9 9 9 9 9 8 8 7
4 4 4 3 3 3 3 2 2 3 3 3 4 5 6 7 7 8 8 8 9 9 9 9 9 9 9 9 9 8 8 9 9 8 9 9 9 9 8 8 8 7 7
3 2 2 1 2 3 2 2 2 2 3 3 4 5 7 7 7 7 8 8 8 8 8 8 9 9 9 9 9 10 9 9 9 9 9 9 9 8 8 8 9 8 7

GEFSMW_500_meanwind_180.txt.gz
Wind_Speed
20 20 20 20 20 20 21 20 20 19 19 19 19 19 20 22 22 22 22 23 23 23 24 24 25 25 25 25 26 25 25 26 25 26 27 27 28 28 28 28 29 30 30
20 20 20 20 20 20 20 20 19 19 19 20 20 21 21 22 23 22 22 22 22 22 23 24 24 25 25 25 25 25 25 25 25 26 26 26 27 28 29 30 30 30 30
20 20 20 21 20 20 21 21 19 19 20 20 20 21 21 21 22 22 22 23 23 23 23 24 24 25 25 25 26 26 26 27 27 27 27 27 27 28 29 30 30 30 30
19 20 20 20 21 21 21 20 20 19 19 20 21 21 21 21 22 23 22 23 23 23 25 25 26 26 26 26 26 27 27 27 27 28 29 29 28 28 29 30 30 31 31
19 19 20 21 21 22 21 20 20 20 20 21 21 22 21 22 22 23 22 23 23 24 25 26 26 25 25 26 27 27 28 28 29 29 29 29 29 29 28 29 30 30 31
19 20 21 21 21 20 20 20 21 21 21 21 21 22 23 23 23 23 24 24 24 25 26 27 26 26 26 26 27 27 28 29 29 29 29 30 30 30 29 29 28 28 29
19 20 20 20 20 20 20 21 21 21 21 21 22 23 23 24 24 24 24 24 25 26 26 26 25 25 26 27 27 28 28 28 28 29 29 29 29 29 29 28 28 28 27
18 19 19 19 19 20 20 20 21 21 21 21 22 22 23 23 23 23 24 23 24 24 24 25 25 25 26 26 27 27 27 27 27 28 27 27 27 28 28 28 27 26 26
17 17 17 18 19 20 20 20 20 21 21 21 21 21 22 22 22 22 22 22 22 23 24 24 25 25 26 26 26 26 26 26 26 25 25 25 25 25 25 25 26 25 25
17 16 16 18 19 20 20 20 20 21 20 20 21 20 20 20 21 22 21 21 21 22 22 23 23 24 24 24 24 24 24 24 23 23 22 23 23 23 23 23 24 24 24
15 15 16 17 18 19 20 20 20 19 20 20 20 19 18 18 19 20 20 20 20 20 21 21 22 22 23 23 23 23 22 22 21 20 20 21 22 22 22 21 21 22 22
16 16 17 18 18 18 18 18 18 18 18 18 18 17 17 17 18 19 19 19 19 19 20 20 20 20 21 22 21 21 20 19 18 17 17 18 19 19 18 19 19 20 20
16 16 16 17 17 17 17 17 17 17 17 16 16 16 17 17 17 18 18 18 18 19 19 19 18 18 19 19 19 19 18 17 15 15 15 15 15 15 15 16 17 18 19
15 15 16 16 16 16 16 16 16 15 15 15 15 16 16 17 17 17 17 17 18 18 18 18 18 18 18 18 17 16 15 14 13 14 14 14 13 13 13 14 15 16 17
14 14 15 15 16 16 15 16 15 14 14 14 15 15 16 16 17 17 16 16 17 17 17 17 17 17 17 17 16 14 13 12 12 12 12 11 12 12 12 13 13 14 15
14 15 15 16 16 15 15 14 14 13 14 14 15 14 14 15 15 16 15 15 14 14 14 15 16 16 16 15 14 14 12 12 11 10 9 10 10 11 11 11 12 12 13
13 14 14 14 14 14 13 13 13 13 13 13 13 13 14 14 13 13 14 13 12 12 13 14 15 15 14 14 15 14 12 11 10 9 9 9 9 10 10 10 11 11 11
12 12 12 12 12 12 13 13 12 12 12 12 12 12 12 12 11 11 11 11 11 12 13 14 14 14 13 13 13 12 11 10 10 9 9 9 9 10 9 9 9 9 9
10 10 10 10 10 10 11 10 10 10 10 10 10 10 11 11 11 10 10 10 11 12 13 13 13 13 12 12 12 11 10 9 9 9 8 8 9 9 9 8 8 9 9
9 9 9 9 9 9 9 9 8 8 8 8 8 8 9 10 10 10 10 10 10 11 12 12 13 12 12 12 11 10 10 9 9 8 8 9 9 8 9 8 8 8 8
8 8 8 8 8 8 7 7 7 7 7 7 7 7 8 8 8 9 9 10 10 11 11 12 12 12 12 11 11 10 9 9 8 8 8 8 8 8 8 8 8 8 8
8 8 8 8 7 7 6 6 6 6 6 6 7 7 7 7 8 8 8 9 10 11 11 12 12 11 11 11 10 10 9 9 9 9 8 8 8 8 8 8 8 8 8
6 6 6 6 7 6 6 5 5 5 4 5 5 5 6 6 6 7 8 9 10 11 11 11 11 11 11 11 10 10 9 9 9 9 9 9 8 8 8 8 8 7 7
5 5 5 5 5 4 4 3 3 3 3 3 3 4 4 4 6 7 8 9 10 10 11 11 10 10 10 10 11 10 10 10 10 9 9 9 9 9 9 9 8 8 8
5 4 4 3 4 4 3 3 3 3 3 3 3 3 4 5 6 7 8 9 9 10 10 10 10 10 10 10 11 11 11 11 10 11 11 10 10 10 9 9 9 10 10
3 3 3 3 3 3 3 4 3 2 2 1 2 3 3 4 6 7 8 9 10 10 11 11 11 11 11 11 11 12 12 12 12 12 12 11 11 11 11 11 11 12 12

GEFSMW_500_meanwind_186.txt.gz
Wind_Speed
21 21 21 22 22 21 22 23 23 23 24 25 26 26 26 25 24 24 24 25 25 25 24 25 25 25 25 25 26 26 26 26 27 27 27 27 27 27 27 27 27 28 29
23 23 22 23 22 22 22 23 24 24 25 26 26 26 26 25 25 25 25 25 25 25 25 25 25 25 26 26 26 27 28 28 28 27 26 27 27 28 27 27 27 27 28
21 22 21 22 22 23 23 24 24 25 26 26 27 27 26 25 26 25 26 26 26 25 26 26 26 26 27 27 28 28 28 28 28 28 27 28 28 28 28 27 27 27 28
21 23 23 22 23 23 23 24 24 25 26 27 27 27 26 25 25 25 26 27 26 25 25 26 26 26 27 27 28 28 29 29 29 29 29 29 29 29 28 28 28 28 28
21 22 23 22 22 23 24 24 24 25 27 27 26 25 24 24 25 24 25 26 25 25 25 26 26 26 26 27 27 28 28 28 28 28 28 28 29 29 29 29 29 28 28
21 22 23 23 23 23 24 23 24 24 24 24 23 23 23 23 23 23 23 23 23 24 24 25 26 26 26 26 26 27 27 27 27 27 27 27 28 28 29 29 29 29 28
20 21 22 22 22 23 23 23 23 23 22 22 22 22 22 22 23 22 21 23 23 24 24 25 25 26 25 26 26 26 25 25 26 27 27 27 26 27 28 28 28 27 27
21 21 21 21 22 22 22 21 21 21 22 21 20 20 21 22 22 22 22 23 24 25 24 25 25 24 24 25 25 24 25 25 25 26 26 26 26 26 27 28 28 27 26
21 21 20 21 21 20 20 20 20 20 21 20 21 21 21 22 23 22 22 23 24 24 23 23 22 23 23 23 24 24 25 25 25 26 26 25 25 25 25 26 26 26 26
21 20 18 17 17 18 19 19 19 19 20 20 20 21 22 23 22 22 22 22 23 23 22 22 22 22 22 22 23 24 23 24 24 25 25 24 24 24 24 24 24 24 24
19 19 19 18 18 18 19 19 19 19 19 19 20 21 21 22 22 22 21 21 22 22 22 21 21 21 21 21 22 23 22 22 22 23 22 22 21 21 21 21 21 22 22
19 18 18 19 19 19 19 19 19 19 19 19 19 19 20 21 20 20 20 21 21 21 21 20 20 21 21 21 21 21 20 20 20 20 19 18 18 18 19 18 18 18 18
17 17 18 19 18 19 19 19 18 17 17 17 17 18 18 19 18 18 19 19 19 20 20 20 20 21 20 20 19 19 19 18 18 18 17 16 16 17 16 16 16 16 17
19 17 18 18 19 19 18 17 17 17 16 16 16 17 17 17 16 17 17 17 18 19 19 20 20 20 19 18 17 17 18 17 17 17 17 16 15 14 14 15 16 16 16
19 19 18 18 18 17 16 16 16 16 16 16 16 16 16 16 15 15 15 15 17 18 18 19 19 19 18 17 16 17 18 17 17 16 15 14 13 13 14 14 14 14 15
18 18 17 17 17 16 16 15 15 15 15 15 15 15 15 15 15 14 14 15 16 16 17 17 18 17 17 16 16 16 16 15 15 15 14 14 13 13 13 13 13 13 13
16 16 17 16 16 16 15 15 15 15 15 14 14 13 13 13 13 14 14 14 15 15 16 17 17 16 16 16 15 15 15 14 15 14 14 13 13 12 12 12 12 13 13
16 16 16 16 16 15 14 14 14 14 14 13 13 12 12 12 13 13 13 14 15 15 16 16 16 16 16 15 15 15 15 15 15 15 14 13 12 12 12 12 12 12 13
15 14 14 15 15 14 14 13 13 13 13 12 11 11 11 11 12 12 13 14 14 15 15 15 16 15 15 14 15 15 15 15 15 15 14 14 13 12 13 12 12 12 12
12 12 12 12 13 12 12 11 11 11 10 10 10 9 10 10 11 11 12 12 13 14 14 14 14 15 15 15 15 15 15 15 15 15 15 14 14 14 13 13 13 12 12
12 11 11 11 11 10 11 10 9 9 8 8 9 9 9 9 9 10 11 12 13 14 14 13 13 13 14 14 15 16 16 16 16 15 15 14 14 14 14 14 13 12 13
11 10 11 11 10 10 10 9 8 7 8 8 8 8 7 8 8 9 11 12 13 14 14 13 13 13 13 14 15 16 16 17 16 16 15 14 14 14 14 14 13 13 13
10 10 10 10 9 8 8 7 7 6 6 7 6 6 6 7 7 9 10 12 13 13 13 13 14 13 14 14 15 16 16 16 16 16 16 15 15 15 15 15 15 14 13
8 8 8 7 7 6 6 6 6 5 5 5 6 6 6 7 8 9 11 12 12 13 14 14 14 15 15 16 16 17 17 17 17 17 17 17 16 16 15 15 16 16 15
6 6 6 6 5 5 5 5 5 5 4 5 6 6 6 7 9 10 11 12 13 13 14 14 14 15 16 17 17 18 18 18 18 18 18 18 17 17 17 17 17 17 17
5 5 5 4 3 4 4 4 4 4 4 5 5 6 7 8 9 10 12 12 12 13 14 14 15 16 17 17 18 18 19 19 19 19 19 19 19 18 18 18 18 18 19